TimeMDT,TemperatureF,Dew PointF,Humidity,Sea Level PressureIn,VisibilityMPH,Wind Direction,Wind SpeedMPH,Gust SpeedMPH,PrecipitationIn,Events,Conditions,WindDirDegrees,DateUTC
12:53 AM,70.0,48.9,47,29.55,10.0,SW,18.4,-,N/A,,Clear,220,2013-09-26 06:53:00
1:53 AM,69.1,48.9,49,29.56,10.0,SSW,16.1,-,N/A,,Clear,210,2013-09-26 07:53:00
2:53 AM,70.0,48.9,47,29.55,10.0,SSW,17.3,25.3,N/A,,Clear,210,2013-09-26 08:53:00
3:53 AM,68.0,48.9,50,29.55,10.0,SW,15.0,-,N/A,,Clear,230,2013-09-26 09:53:00
4:53 AM,66.9,48.0,51,29.57,10.0,West,10.4,-,N/A,,Clear,260,2013-09-26 10:53:00
5:53 AM,63.0,48.9,60,29.59,10.0,SW,8.1,-,N/A,,Clear,230,2013-09-26 11:53:00
6:53 AM,64.0,48.9,58,29.63,10.0,SW,10.4,-,N/A,,Clear,230,2013-09-26 12:53:00
7:53 AM,68.0,50.0,52,29.65,10.0,SW,12.7,-,N/A,,Clear,220,2013-09-26 13:53:00
8:53 AM,72.0,51.1,48,29.68,10.0,SW,13.8,-,N/A,,Clear,220,2013-09-26 14:53:00
9:53 AM,80.1,48.9,34,29.66,10.0,WSW,15.0,-,N/A,,Clear,250,2013-09-26 15:53:00
10:53 AM,84.0,44.1,25,29.65,10.0,WSW,23.0,27.6,N/A,,Clear,240,2013-09-26 16:53:00
11:53 AM,87.1,43.0,21,29.64,10.0,WSW,16.1,24.2,N/A,,Clear,240,2013-09-26 17:53:00
12:53 PM,88.0,43.0,21,29.62,10.0,SW,19.6,27.6,N/A,,Partly Cloudy,230,2013-09-26 18:53:00
1:53 PM,90.0,45.0,21,29.59,10.0,SW,20.7,29.9,N/A,,Clear,220,2013-09-26 19:53:00
2:53 PM,90.0,46.0,22,29.58,10.0,SW,21.9,33.4,N/A,,Clear,220,2013-09-26 20:53:00
3:53 PM,90.0,46.9,23,29.58,10.0,SSW,19.6,-,N/A,,Clear,200,2013-09-26 21:53:00
4:53 PM,90.0,46.9,23,29.57,10.0,SSW,17.3,29.9,N/A,,Clear,210,2013-09-26 22:53:00
5:53 PM,88.0,48.0,25,29.57,10.0,SSW,20.7,27.6,N/A,,Partly Cloudy,200,2013-09-26 23:53:00
6:53 PM,84.0,48.0,28,29.58,10.0,South,13.8,-,N/A,,Partly Cloudy,190,2013-09-27 00:53:00
7:53 PM,82.0,48.9,31,29.59,10.0,South,16.1,-,N/A,,Clear,190,2013-09-27 01:53:00
8:53 PM,80.1,48.0,32,29.61,10.0,SW,12.7,-,N/A,,Clear,230,2013-09-27 02:53:00
9:53 PM,77.0,48.9,37,29.62,10.0,SW,15.0,-,N/A,,Clear,230,2013-09-27 03:53:00
10:53 PM,72.0,50.0,46,29.62,10.0,SW,13.8,-,N/A,,Clear,220,2013-09-27 04:53:00
11:53 PM,72.0,50.0,46,29.63,10.0,South,11.5,-,N/A,,Mostly Cloudy,180,2013-09-27 05:53:00